TIMESTAMP,CO2_1_1_1,H2O_1_1_1,TAU_1_1_1,TAU_SSITC_TEST_1_1_1,H_1_1_1,H_SSITC_TEST_1_1_1,LE_1_1_1,LE_SSITC_TEST_1_1_1,FC_1_1_1,FC_SSITC_TEST_1_1_1,WD_0_0_1,WS_0_0_1,WS_MAX_0_0_1,U_SIGMA_0_0_1,V_SIGMA_0_0_1,W_SIGMA_0_0_1,USTAR_0_0_1,MO_LENGTH_0_0_1,ZL_0_0_1,FETCH_MAX_0_0_1,FETCH_70_0_0_1,FETCH_80_0_0_1,FETCH_90_0_0_1,PA_0_0_1,RH_0_0_1,TA_0_0_1,VPD_0_0_1,T_SONIC_0_0_1,T_SONIC_SIGMA_0_0_1
[yyyymmddHHMMSS],[mmolCO2 mol-1],[mmolH2O mol-1],[kg m-1 s-2],[#],[W m-2],[#],[W m-2],[#],[umolCO2 m-2 s-1],[#],[Decimal degrees],[m s-1],[m s-1],[m s-1],[m s-1],[m s-1],[m s-1],[m],[#],[m],[m],[m],[m],[kPa],[%],[deg C],[hPa],[deg C],[deg C]
20191202003000,413.71604770954377,3.8341630032477427,0.56749982296940915,0,-0.95929695485805833,2,-1.2175619858432323,2,-0.15886164928436014,2,343.96507189579108,4.1892908888494302,10.846326396749280,1.5672059035937289,1.1965995316479294,0.83131505049217691,0.68381481537273148,27653.197356549623,6.87081488444947442E-004,107.10091715992560,195.81463465391269,234.34010592521145,293.36600480979473,93.395715675295378,88.055172413793102,-5.4393103448276179,0.48589118431852796,-5.8252165213690432,0.13919322287084937
20191202010000,414.00045239928625,3.7479810096561161,0.51399072450219341,0,-23.023145595180758,0,-2.5561365215438441,1,0.29864904105236306,0,340.19415358809823,3.9586954042725644,9.3268982707245343,1.4617004438191519,1.1671036390484164,0.74487068532594403,0.65001634674682363,989.96953194989806,1.91925098569211139E-002,112.28703556505691,205.29651312612339,245.68749275089493,307.57158658564526,93.437578298394101,89.446666666666673,-5.9376666666666438,0.41329574110654166,-6.3203088828192904,0.19252285457221202
20191202013000,413.95043446957891,3.6123930429125415,0.63953958083906770,0,-34.985562012967939,0,-4.1155157385580123,1,0.29154894165726847,0,335.68465528226159,4.3421443416262395,10.731517742425758,1.6453689092549626,1.1769904132226903,0.82367948057466733,0.72445414346413262,902.05602042559576,2.10629933948400239E-002,112.99442662977468,206.58984960323602,247.23528619125341,309.50924030512294,93.463805804005531,88.679999999999993,-6.3033333333333417,0.43109767459442422,-6.6841491594650506,0.13158275346211060
20191202020000,413.88839803881541,3.5217063370177994,0.72334663618229911,0,-39.506841216324283,0,-0.69252683580989727,1,0.50915604847772977,0,337.31403868358700,4.2265188979012560,10.055303369087461,1.7110404425194143,1.0487275010005428,0.79762796527782753,0.77016898542825774,959.86825599191081,1.97943831160097457E-002,121.75405173989203,222.60523804366929,266.40161576716969,333.50321057476532,93.476816760633682,87.503333333333330,-6.4590000000000032,0.47026550247748733,-6.8471788211398348,0.13929441094996153
20191202023000,413.77652645014888,3.4737204311289203,0.84803059334792319,0,-32.774410522073353,0,-1.1597225215050169,2,0.29923404068450848,0,339.46170552787362,4.2039639396698645,10.805737397533791,1.8137189250291086,1.1506185514034257,0.84709444771743403,0.83384484277323467,1468.7054426598438,1.29365626681349835E-002,123.64530475038458,226.06305173106017,270.53973561303815,338.68364557462820,93.504296605742269,86.056666666666672,-6.4166666666666856,0.52641105315284398,-6.8093563616865822,0.14030173208019373
20191202030000,413.77588203926086,3.4282609139059952,0.67860296256207531,0,-38.510052536502513,0,-0.24797684495335931,1,0.38205676012859319,0,347.24444469739746,3.9109805852920885,11.567045339790143,1.6389458506954555,0.95353818299917736,0.79106353001566521,0.74579793808866079,894.50482151845722,2.12408022214421940E-002,119.44906431789973,218.39098589823413,261.35823228410027,327.18949292361776,93.529203221571180,84.989999999999995,-6.4223333333333130,0.56643547420852824,-6.8329857239731950,0.15226161915924002
20191202033000,413.94818902937561,3.4269806184606026,0.43045688015136985,0,-24.182058091307162,0,-0.35274143124088503,0,0.24053907719367848,0,350.58609643730983,3.5663658550160067,10.219015492968621,1.3752119801388458,0.89853193020435207,0.66382078454678073,0.59370873516447786,718.81168850604047,2.64325139724551593E-002,114.51779408250752,209.37505115996143,250.56846110425042,313.68197976727134,93.558046977430550,86.093333333333334,-6.5913333333333526,0.51803940619404498,-7.0022984805636952,0.13031625536310473
20191202040000,414.07811381395385,3.3864597157672378,0.36764386724430870,0,-24.393265049985612,0,-1.0643062507474468,0,0.16970812441123059,0,351.28610407121249,3.2551848737645082,8.2201835580765330,1.2038742884696558,0.80876017561460178,0.59915299361569552,0.54834365389271633,561.52918168641679,3.38361756070060457E-002,116.64522636806838,213.26467588769358,255.22334847932873,319.50934639183919,93.588084898800005,86.693333333333328,-6.8323333333333380,0.48659375350400241,-7.2242164376511369,0.13922351366323521
20191202043000,414.09967237201550,3.3688865124592775,0.36151093401073209,0,-30.090113646169538,0,-1.3932636907164049,0,0.25114276726368756,0,347.52340790251094,3.7300586466155536,8.5021581605683032,1.2736261634379313,0.92170551549211122,0.64303810199720046,0.54354917005807490,443.50207006331573,4.28408372418363284E-002,109.46029236450771,200.12832501201558,239.50249155197028,299.82869902353332,93.624540172526054,86.890000000000001,-6.9243333333333226,0.47602027689663828,-7.3245388293796054,0.15363563177161271
20191202050000,414.25827537326865,3.3343102390548927,0.40071751600101385,0,-39.680356095473861,0,-2.4498167808144702,0,0.34579221649917702,0,345.64212493937782,3.0887578884266644,7.3310641491310360,1.1488597689612619,0.78536854507072162,0.58496157580342922,0.57188415974095597,391.80194401630121,4.84938890431066624E-002,122.97008750069942,224.82853924913914,269.06233947106602,336.83412091908298,93.660293025824657,87.700000000000003,-7.1736666666666906,0.43811035246335905,-7.5660559048122877,0.14967684771387310
20191202053000,414.31430725279444,3.3069853837259409,0.25935527545561071,0,-29.033999320395548,0,-2.1386669003978689,0,0.23610212998555621,0,339.71318256100096,3.2079032971584458,7.0439473807524546,1.0200274150593931,0.73600181826462818,0.54991012082890889,0.45984534813526268,278.42798956402322,6.82402657496869181E-002,108.52029547843695,198.40971090764791,237.44574940920910,297.25390192269754,93.681187366297166,88.443333333333328,-7.3866666666666561,0.40491943846793788,-7.7738180801604244,0.14292117030894252
20191202060000,414.29656706027430,3.2977435401422195,0.26811410827240761,0,-40.028314682272985,0,-2.5939643108337567,0,0.29834610861530397,0,336.04700817819332,3.3538790522001003,7.0797495379373201,1.1242857335836862,0.77045683866814529,0.54980130457214693,0.46748963863706183,212.21745893029581,8.95308053153189148E-002,109.97852196092168,201.07581399511287,240.63639387267486,301.24821017531127,93.695934115596344,88.353333333333339,-7.4076666666666711,0.40741105556106277,-7.7737726693287073,0.17147329477204956
20191202063000,414.30412479819563,3.2938009410690632,0.25193789458179533,0,-40.427919958061842,0,-2.9566884956484869,0,0.38633300391986036,0,328.49710945958310,3.4725074594806671,8.4915042423203371,1.1224225450222833,0.81806751585719417,0.55373968744783553,0.45314544187430245,191.38315437665071,9.92772852024747243E-002,106.65972791880375,195.00800001105048,233.37477027506779,292.15751912671033,93.708036173828120,88.200000000000003,-7.3990000000000009,0.41305138931728608,-7.7866935738457528,0.16590594973761721
20191202070000,414.59297357415397,3.2371554117312393,0.26553841690403696,0,-40.426140425296452,0,-3.6970261331436913,0,0.34642962815593265,0,319.16573964784925,3.4115842203063536,7.1818157500079360,0.95880058743014007,0.81982131326148100,0.55300180881483674,0.46485587772493220,206.65092783140642,9.19424858111496796E-002,108.97536182098857,199.24171731779822,238.44144858475684,298.50039913652091,93.731510193359370,89.010000000000005,-7.7379999999999995,0.37473523908511425,-8.1325723300509480,0.19246289857321233
20191202073000,414.63734062227957,3.2289726076286138,0.22273279408851882,0,-44.065478686028158,0,-3.0138943312147259,0,0.52394960434042193,0,313.97125638586385,3.9236071288892429,7.3222562533919149,0.95532089769230599,0.92217146784437132,0.59994837357053532,0.42565977253704679,145.56928240719887,0.13052204205315496,95.151115141622384,173.96658537057581,208.19357100270480,260.63364574751989,93.742571114717038,89.283333333333331,-7.8086666666666815,0.36341849666006792,-8.2095815584063985,0.17357518370526168
20191202080000,414.77616684314722,3.1958640882058895,0.23535582453678261,0,-37.029244040447416,0,-1.1337700571556319,1,0.31360553014433018,0,305.69412524500342,3.9137992315638006,6.9077536042867358,0.96474232954060568,0.79351868600035846,0.58611293631543215,0.43731162202474977,187.92450229504442,0.10110443166250722,99.060991316719679,181.11508600970188,216.74850051520013,271.34340233229807,93.796283684081232,89.386666666666670,-7.9490000000000123,0.35601596565169019,-8.3521129475472549,0.18460194072017105
20191202083000,414.81749595232418,3.1811679783404614,0.14514704130359796,0,-29.945252316957763,0,-1.2751293907233201,1,0.26951087860716755,0,315.10663992835794,3.6733787929201722,6.8412059001891441,0.78334476769801142,0.73316203360012566,0.46043267732733839,0.34333275993190476,112.49650401692045,0.16889413734263453,99.013448098359063,181.02816184340691,216.64447448888689,271.21317409153124,93.846836837239579,89.016666666666666,-7.9479999999999791,0.36845593560991236,-8.3244338667127522,0.18434518005694459
20191202090000,414.70951180195539,3.1834550904059964,0.11487269058090148,0,-37.853891487126383,0,-1.9723714257194107,0,0.37645322914880675,0,328.35262814655141,3.5056674262901621,5.6803824234523574,0.70265489636825262,0.75059639368599274,0.38650186983173879,0.30546474972418675,62.685243787703492,0.30310163687561653,103.72955163367563,189.65070323004201,226.96345430089050,284.13131232147026,93.868233481522651,88.336666666666673,-7.8369999999999891,0.39465311235025979,-8.1955522584398182,0.23308744629319184
20191202093000,414.48757333889642,3.1404691716471698,0.10503383243109869,0,-30.751006430744170,0,-2.5008123744800903,0,0.28794015157101760,0,336.56872705356614,2.9618822449077156,5.5016798292980207,0.77210399829909371,0.63930683372931807,0.35127535237404001,0.29213795680623544,67.517391471772186,0.28140897605535548,108.04561536681355,197.54184427214355,236.40713470274196,295.95367955670525,93.904772974175344,85.876666666666665,-7.6429999999999723,0.48513288145811373,-8.0015976079304778,0.21075915808344534
20191202100000,414.39405257001192,3.1590329198366791,0.15116951278596588,0,-41.116273504964084,0,-3.9827847418712152,0,0.62225091660522358,0,344.26389026619535,2.9272714486811600,6.3493364339856857,0.87644013195578307,0.69190558519069978,0.42206511145913866,0.35056871033242332,87.273298022742651,0.21770690956412311,107.93687923654311,197.34303994639913,236.16921670015918,295.65583444984884,93.923729934895832,85.103333333333339,-7.4473333333333471,0.51950351585377463,-7.8065171356200835,0.25408662624672151
20191202103000,414.56996678316489,3.2322200040596458,0.12728800519426858,0,-33.879823072413998,0,-2.2729679181132405,0,0.36419926642960332,0,330.52426563796121,3.1122093614418946,5.7195799348654006,0.75210918324704745,0.77631904231743065,0.38991556437812536,0.32161817375992297,81.801107893087419,0.23227069277390056,107.33735962431943,196.24692688828091,234.85744932077296,294.01365735083721,93.953413735243061,87.363333333333330,-7.4859999999999900,0.43937292481092582,-7.8595628000895204,0.24036576967315817
20191202110000,414.63035478856756,3.3071838325920329,6.24460111983223404E-002,0,-21.146214055655189,0,-1.8153901504605054,0,0.13208761784919248,0,318.71115786559108,3.1296562648880863,5.0841261950150702,0.56504784899655514,0.50646309898877528,0.29892646271437773,0.22527913937641142,45.054779589619265,0.42170886580871542,99.857385741286066,182.57114901478351,218.49103604860233,273.52485004332908,93.991683259889911,88.549999999999997,-7.3586666666666929,0.40205101598068044,-7.6954563557422375,0.19005764540821152
20191202113000,414.59425036033554,3.3231000106081665,8.98475420608070285E-002,0,-25.464704361104857,0,-1.8939453807279047,1,0.18969599121180813,1,330.18366983912563,3.1025894112924002,5.2991801295420178,0.65760391158826637,0.53269253889125567,0.32580703978949105,0.27024484884656430,64.598408684356230,0.29412489234585776,107.81829711801774,197.12623401390783,235.90975537197488,295.33101965576333,94.014749614583337,88.263333333333335,-7.2513333333333208,0.41554717126203289,-7.5729457897609791,0.23086601410582339
20191202120000,414.21089000463178,3.3348565732806215,0.12529053643453023,0,-46.337437996914240,0,-4.8564472540393178,1,0.52256486448719097,0,335.78357778622569,2.9649608892659871,5.6432328229809530,0.78848823863393569,0.68802730413240498,0.38254932296949817,0.31938063465537414,58.611505396232509,0.32416843538745382,108.38066547063184,198.15442272067324,237.14023465091316,296.87143369901111,94.044489532335064,85.216666666666669,-6.7453333333333489,0.54422040377296643,-7.0874937235514608,0.31012252803700996
20191202123000,414.32632909948535,3.4217893624022890,0.14113663404588866,0,-32.778473407504741,0,-2.6564289172484892,1,0.32592614373655238,0,332.35268701092627,2.7577787900820194,5.4024328306522165,0.73877191362702788,0.72214920759254286,0.37735305903657634,0.33906827187544147,99.163528387548411,0.19160270221269937,114.94400417238747,210.15429913699819,251.50102191005303,314.84943523444531,94.069720350911467,86.079999999999998,-6.5380000000000109,0.52066283771561983,-6.8780445726182506,0.18521068565575885
20191202130000,414.33409925911116,3.5878373455497536,5.05122969651482304E-002,0,-14.968028113959349,0,0.84162771013471127,2,4.24146889648303604E-002,2,320.59995243019500,3.1072653109898334,5.0735763768534268,0.57000544114141827,0.55940779516526173,0.29738812786852648,0.20294263353443023,46.572109796329975,0.40796949253729659,92.234762054971057,168.63456180506600,201.81250061261011,252.64530282447964,94.093553112413204,88.189999999999998,-6.2323333333333153,0.45220946572547632,-6.5201565483940840,0.23231219730545735
20191202133000,414.47682576601898,3.5753390635379172,4.99797363359553853E-002,1,-8.3991091685103836,1,0.40022533869204602,2,0.12609238659424821,1,9.3672271858362990,2.1627313941432651,4.6588979324137467,0.80028318087315220,1.0296256591127777,0.21030086685061034,0.20180660267573949,81.591957354637955,0.23286608896287225,121.15193267069995,221.50437234915850,265.08416069586190,331.85391316039386,94.064961306628689,89.536666666666662,-6.4796666666666738,0.39312506379307766,-6.7858228165021046,0.26161415305961833
20191202140000,414.16821433269291,3.5899384469953519,4.31840290145804676E-002,0,-15.293556005126774,0,-1.0948555178105597,0,0.20510060958680743,0,345.07059091493750,1.9139672196326327,5.1521369183565309,0.45190736101637863,0.71078487427750481,0.20429113640771607,0.18756782749905729,35.978970459326852,0.52808626143093584,148.52694731413291,1389.0000000000000,2556.0000000000000,6936.0000000000000,94.067048863281244,90.226666666666659,-6.5263333333333549,0.36588853306370650,-6.8690054244995054,0.18170955651307652
20191202143000,414.16383840689804,3.6238618325949878,2.69005098427938447E-002,0,-2.2065222571045235,0,-0.76560299460212766,0,7.07330284849947838E-002,1,358.60685411294213,1.6420980422009654,3.6915630207445451,0.47813886751975537,0.55023800330322559,0.16688670557460347,0.14806891725502963,122.67168070654833,0.15488497337418286,155.18787422665147,1319.0000000000000,2363.0000000000000,6112.0000000000000,94.059784037760437,90.496666666666670,-6.4436666666666724,0.35804323074432887,-6.7837721320257742,0.18239715446917512
20191202150000,414.24569893199737,3.7480835035942373,6.57577968041656580E-002,0,3.4403401977916728,1,-0.63142760880201998,1,0.49518514171893591,0,7.0531391471633640,1.6468979926445715,3.7171179442780837,0.53674193814965432,0.50282663127545479,0.23851238651407580,0.23172320036102451,-301.53586518381269,-6.30107466268326893E-002,122.35501197323595,223.70398501665784,267.71653526994447,335.14933375821488,94.047729377604185,90.349999999999994,-5.9836666666666360,0.37659383695513043,-6.3379577484130891,0.23644612460037179
20191202153000,414.38417636032636,3.8963766262174970,6.52613541584877721E-002,0,18.470817566080363,1,1.7658898801038287,1,0.55886235505870019,0,343.46236598725852,1.3143745117355135,3.5063508087963218,0.58323260762618223,0.55988481958789771,0.26221638186048724,0.23113819584198853,-55.740652852562796,-0.34086432482691015,113.19426363510630,206.95521538372614,247.67253571477767,310.05662482265933,94.047104697137030,89.333333333333329,-5.3256666666666774,0.43766117605376453,-5.7457142640771508,0.27375097258793674
20191202160000,414.73300237201039,3.9598496622016084,8.74297144200379128E-002,1,42.040812551920425,0,4.3493524286331295,0,1.0155154597639522,1,338.25322278934948,1.2365409280565363,3.5816885785781309,0.51389979008024156,0.50703567278973050,0.32344817859812325,0.26772943971497004,-38.064229727503388,-0.49915629807875794,107.63859869329843,196.79768798164790,235.51656968318721,294.83879783051236,94.062369634577308,87.853333333333339,-4.8899999999999864,0.51512183847037196,-5.3999260743679542,0.27093958306206156
20191202163000,415.22047846929956,4.0323344923426534,0.10717897656857492,1,73.556298275522394,0,9.9748354290009900,0,0.98654685817076748,0,353.43124001268063,1.0669271548398089,2.8705794331607390,0.45294540306294762,0.57007712759274165,0.37905576263925667,0.29676490467063404,-29.622325819700478,-0.64140810939848458,102.94907507588972,188.22374316217832,225.25574755034432,281.99346611364126,94.030282034809431,86.063333333333333,-4.3816666666666606,0.61415998754955747,-4.8894958675828661,0.32409224650257717
20191202170000,415.37206573847607,4.0881575228692011,6.48495999119826361E-002,1,81.759200380231860,0,13.915689880235027,0,0.34388636036754955,1,320.92864783270943,0.79106527366779356,3.0557930002641935,0.42521007898389879,0.45217041461838914,0.38159781357634459,0.23111338890347718,-12.586370440986762,-1.5095694258392107,83.835948524887556,153.27885200788592,183.43563788839143,229.63965137161810,94.016239646701393,83.453333333333333,-3.7909999999999968,0.76227874007107521,-4.4135419387817478,0.32179385637525354
20191202173000,415.34241038444486,4.0578263169016617,3.25060708848906310E-002,1,53.625575025059874,0,9.3223331669958380,0,-6.19468994201344547E-002,2,14.673688976052148,0.18856203470685115,1.9066570951261015,0.44880159430528899,0.45977223728615479,0.44438518993121329,0.16380277114313949,-6.8309583457365868,-2.7814545248776827,1.8967281341089417,7.0000000000000000,10.000000000000000,18.000000000000000,93.994287779079869,79.650999999999996,-3.2703333333333262,0.97468264752523970,-3.8952658445570023,0.27583340695462727
20191202180000,414.96430024609157,4.0636224664329772,5.04971800698527096E-002,1,96.704933995986082,0,12.744054331916839,1,-0.12612505662118420,2,40.282900964492768,0.66987553597565275,2.3623260542125486,0.36982376445401693,0.53735478647436707,0.36515301563751157,0.20440069781074710,-7.3579875486107369,-2.5822277999896035,78.715613709435019,143.91724691820787,172.23218758334900,215.61426103948128,93.954181642795135,76.710999999999999,-2.7520000000000095,1.1594156087081717,-3.3553800438774601,0.33823481239410647
20191202183000,414.41578872533574,4.0351614456298854,1.94405777371635946E-002,0,76.189583265292995,0,11.673070966188904,0,-0.24438076562277197,2,66.971211517192103,1.1194178686940606,2.9645897622947142,0.50875558401273058,0.39322062815273184,0.39615529178279807,0.12691446564133421,-2.2348615639748957,-8.5016451606097903,35.875193307190671,104.00000000000000,141.00000000000000,224.00000000000000,93.909635559678804,74.692999999999998,-2.4939999999999714,1.2842462668376085,-3.1190913882785480,0.28850367075117828
20191202190000,413.72543077200044,4.0695084836473754,0.22912396975406912,1,83.320051099792650,0,75.225020379208274,1,2.5553650891137267,1,141.88379142529902,0.97818742275684889,4.2568629289849582,0.63875343052805100,0.87317035220897943,0.54209585535023364,0.43657407251948643,-83.147893155512762,-0.22850849587329908,105.30291229655343,192.52730831942901,230.40601589769545,288.44099093145007,93.851165518012166,70.391666666666666,-1.5849999999999795,1.6069072906150916,-2.2716808675129414,0.28812747023986557
20191202193000,413.50051400717263,3.9802238993664387,0.31483768086607278,1,118.57948981294926,1,69.648687879273368,1,1.0551533265699966,1,151.26147298238681,1.4011294856603447,4.9537176610015807,0.91080071104078986,0.57485112526960114,0.48531375754399536,0.51228989929361080,-94.379859159594545,-0.20131413809244367,130.75233462170823,239.05696900676031,286.09013589927207,358.15090145536709,93.826360463107648,66.345333333333329,-1.0846666666666920,1.8948889609039248,-1.7974183451334511,0.32421011933105359
20191202200000,413.39069429288594,3.8131434921719807,0.16035109144037951,1,47.150399808306091,0,56.988922813722660,1,1.0161292866772318,1,182.13509716674196,1.8095850265080176,4.5959058595188269,0.81571508975619711,0.66397987032459083,0.48659467251903943,0.36579558470356172,-86.391854077979417,-0.21992814256365109,99.657912810058960,182.20644887787194,218.05458313043380,272.97846278116941,93.799619518876781,62.490000000000002,-0.85666666666668334,2.1475201328162004,-1.5132825600766182,0.17403347275273812
20191202203000,413.82430521432235,3.9600475058009441,0.19866846874021055,1,24.898418471621550,0,23.382339965865029,0,-2.11639751521973847E-002,2,206.77704884096406,1.5256903799301289,4.3803818510175221,0.74559765654945998,0.75482269363161580,0.48825943314700621,0.40729294399252153,-225.83327215454449,-8.41328641202069155E-002,108.30784002805238,198.02127458515437,236.98089033920539,296.67195352923687,93.795139171657979,64.198999999999998,-0.70933333333334758,2.0718776310167981,-1.3148965038723190,0.13461497037774051
20191202210000,414.07514287889506,4.0274708803122898,0.23041591312106172,0,18.980463867176081,0,31.513513076836141,0,0.50197232133845615,0,212.66292452727996,1.7703778631429614,4.5309659705039698,0.89385626659468942,0.63799923885034415,0.44248836518779333,0.43856952857151332,-369.85845182001964,-5.13710039786944572E-002,124.32663473143850,227.30874023547898,272.03050659954414,340.54991394841306,93.790248859094604,65.751666666666665,-0.80599999999998317,1.9680641597779345,-1.3987506757305823,0.11471739363422251
20191202213000,413.79301311872928,3.8047426227557710,0.10487025642548678,0,-6.3423284249520453,1,13.024093594728198,1,0.10740361165003545,2,201.16754765455934,2.0350059078696487,4.8030004369111605,0.65723142802107282,0.61984281869821944,0.42676954411243773,0.29564742674435635,339.10428945810315,5.60299606659722879E-002,93.351101612020400,170.67558655359281,204.25508595160227,255.70312982117733,93.805421286458341,63.747999999999998,-1.1580000000000155,2.0301826338058051,-1.7373780381944925,0.11647742722148464
20191202220000,413.88100750146970,3.8045406490566434,4.29731363984486928E-002,0,-6.2292592219151421,0,2.8961142232568919,0,-1.20702432980228890E-002,0,200.92204449944609,1.5719006173294037,3.9289611238446289,0.43471273447120035,0.38256808344336635,0.26059883438867287,0.18913053862743931,90.383600315069984,0.21021512679034166,100.53716238264003,861.00000000000000,1546.0000000000000,4014.0000000000000,93.800408159071182,65.502333333333340,-1.5289999999999964,1.8799936691511203,-2.0182101643879378,0.13921218848251024
20191202223000,414.13177152121835,3.9889658476062104,4.69007587798415115E-002,0,-11.977483029985697,0,3.7272387657262542,0,7.00621940105693175E-002,0,203.61807706303196,2.1150457011558004,3.7597719923991733,0.52761276893144005,0.49808983267148854,0.26919155689248464,0.19740656919258850,53.446544015881294,0.35549538983015017,155.43785812029753,1461.0000000000000,2694.0000000000000,7330.0000000000000,93.785126633771313,71.521000000000001,-2.0813333333333048,1.4900537127972076,-2.4429778871314056,0.21428197462636869